Time,TemperatureF,DewpointF,PressureIn,WindDirection,WindDirectionDegrees,WindSpeedMPH,WindSpeedGustMPH,Humidity,HourlyPrecipIn,Conditions,Clouds,dailyrainin,SoftwareType,DateUTC
2013-06-28 11:35:00,68.5,56.2,30.00,West,270,0.8,0.8,65,0.00,,,0.00,WUHU216HW,2013-06-28 09:35:00,
2013-06-28 11:40:00,68.1,56.7,30.00,WNW,293,4.0,4.0,67,0.00,,,0.00,WUHU216HW,2013-06-28 09:40:00,
2013-06-28 11:45:00,67.2,55.9,29.99,North,0,2.4,6.0,67,0.00,,,0.00,WUHU216HW,2013-06-28 09:45:00,
2013-06-28 11:50:00,67.8,56.8,29.99,NNW,338,3.3,6.0,68,0.00,,,0.00,WUHU216HW,2013-06-28 09:50:00,
2013-06-28 11:55:00,69.6,57.7,29.99,NNE,23,3.1,4.0,66,0.00,,,0.00,WUHU216HW,2013-06-28 09:55:00,
2013-06-28 12:00:00,68.7,56.4,30.00,NW,315,5.3,5.3,65,0.00,,,0.00,WUHU216HW,2013-06-28 10:00:00,
2013-06-28 12:05:00,67.6,55.8,30.00,North,0,1.7,5.8,66,0.00,,,0.00,WUHU216HW,2013-06-28 10:05:00,
2013-06-28 12:10:00,66.9,55.5,30.00,NE,45,0.0,6.7,67,0.00,,,0.00,WUHU216HW,2013-06-28 10:10:00,
2013-06-28 12:15:00,66.7,55.8,30.01,NNE,23,0.0,6.7,68,0.00,,,0.00,WUHU216HW,2013-06-28 10:15:00,
2013-06-28 15:41:00,72.8,55.6,29.96,North,0,4.4,4.4,55,0.00,,,0.00,WUHU216HW,2013-06-28 13:41:00,
2013-06-28 15:50:00,71.2,55.6,29.96,WNW,293,2.9,4.0,58,0.00,,,0.00,WUHU216HW,2013-06-28 13:50:00,
2013-06-28 15:55:00,71.2,55.6,29.97,ENE,68,2.2,2.9,58,0.00,,,0.00,WUHU216HW,2013-06-28 13:55:00,
2013-06-28 16:00:00,70.8,55.8,29.97,West,270,2.6,4.2,59,0.00,,,0.00,WUHU216HW,2013-06-28 14:00:00,
2013-06-28 16:05:00,70.5,55.5,29.97,NE,45,0.0,4.2,59,0.00,,,0.00,WUHU216HW,2013-06-28 14:05:00,
2013-06-28 16:10:00,70.1,55.7,29.97,NE,45,0.0,4.2,60,0.00,,,0.00,WUHU216HW,2013-06-28 14:10:00,
2013-06-28 16:15:00,69.9,55.5,29.99,ESE,113,0.0,2.0,60,0.00,,,0.00,WUHU216HW,2013-06-28 14:15:00,
2013-06-28 16:20:00,69.8,55.4,29.98,North,0,0.0,3.1,60,0.00,,,0.00,WUHU216HW,2013-06-28 14:20:00,
2013-06-28 16:25:00,69.8,55.4,29.99,ESE,113,8.5,8.5,60,0.00,,,0.00,WUHU216HW,2013-06-28 14:25:00,
2013-06-28 16:30:00,68.1,55.1,29.99,SSE,158,22.1,22.1,64,0.00,,,0.00,WUHU216HW,2013-06-28 14:30:00,
2013-06-28 16:35:00,66.0,54.6,29.99,ESE,113,3.5,22.1,67,0.00,,,0.00,WUHU216HW,2013-06-28 14:35:00,
2013-06-28 16:40:00,64.7,54.8,29.99,SE,135,2.0,5.8,69,0.00,,,0.00,WUHU216HW,2013-06-28 14:40:00,
2013-06-28 16:45:00,64.0,54.5,30.00,SSE,158,5.3,9.8,71,0.00,,,0.00,WUHU216HW,2013-06-28 14:45:00,
2013-06-28 16:50:00,63.1,53.9,30.02,SSE,158,0.0,9.8,72,0.00,,,0.00,WUHU216HW,2013-06-28 14:50:00,
2013-06-28 16:55:00,62.4,53.9,30.02,SSE,158,3.1,8.9,74,0.00,,,0.00,WUHU216HW,2013-06-28 14:55:00,
2013-06-28 17:00:00,61.8,54.2,30.03,SSW,203,2.6,5.1,76,0.00,,,0.00,WUHU216HW,2013-06-28 15:00:00,
2013-06-28 17:05:00,61.3,54.2,30.04,SE,135,0.0,7.3,78,0.00,,,0.00,WUHU216HW,2013-06-28 15:05:00,
2013-06-28 17:10:00,60.2,54.1,30.05,South,180,4.2,7.3,80,0.02,,,0.02,WUHU216HW,2013-06-28 15:10:00,
2013-06-28 17:15:00,59.7,53.9,30.05,SSE,158,0.8,4.6,81,0.04,,,0.04,WUHU216HW,2013-06-28 15:15:00,
2013-06-28 17:20:00,59.3,53.8,30.05,South,180,5.8,5.8,82,0.04,,,0.04,WUHU216HW,2013-06-28 15:20:00,
2013-06-28 17:25:00,58.8,53.6,30.04,SSW,203,1.3,5.8,83,0.04,,,0.04,WUHU216HW,2013-06-28 15:25:00,
2013-06-28 17:31:00,58.8,53.4,30.04,SSW,203,0.0,1.5,83,0.06,,,0.06,WUHU216HW,2013-06-28 15:31:00,
2013-06-28 17:36:00,58.4,53.8,30.04,ESE,113,0.0,0.0,84,0.08,,,0.08,WUHU216HW,2013-06-28 15:36:00,
2013-06-28 17:41:00,58.2,53.7,30.04,SSE,158,0.0,0.0,85,0.10,,,0.10,WUHU216HW,2013-06-28 15:41:00,
2013-06-28 17:46:00,58.1,53.6,30.03,South,180,0.0,0.0,85,0.12,,,0.12,WUHU216HW,2013-06-28 15:46:00,
2013-06-28 17:51:00,58.1,53.6,30.04,SSW,203,0.0,0.0,85,0.14,,,0.14,WUHU216HW,2013-06-28 15:51:00,
2013-06-28 17:56:00,57.9,53.7,30.04,West,270,3.8,3.8,86,0.16,,,0.16,WUHU216HW,2013-06-28 15:56:00,
2013-06-28 18:01:00,57.7,53.5,30.04,WNW,293,2.4,3.8,86,0.18,,,0.18,WUHU216HW,2013-06-28 16:01:00,
2013-06-28 18:06:00,57.3,53.2,30.04,West,270,0.0,3.8,86,0.18,,,0.20,WUHU216HW,2013-06-28 16:06:00,
2013-06-28 18:11:00,57.2,53.0,30.03,NNW,338,0.0,1.7,86,0.18,,,0.20,WUHU216HW,2013-06-28 16:11:00,
2013-06-28 18:16:00,57.0,52.8,30.03,WSW,248,0.0,0.6,86,0.18,,,0.22,WUHU216HW,2013-06-28 16:16:00,
2013-06-28 18:21:00,57.0,53.1,30.03,West,270,3.1,3.1,87,0.18,,,0.22,WUHU216HW,2013-06-28 16:21:00,
2013-06-28 18:26:00,56.8,52.9,30.02,WNW,293,0.0,3.1,87,0.18,,,0.24,WUHU216HW,2013-06-28 16:26:00,
2013-06-28 18:31:00,56.4,52.6,30.03,NW,315,4.9,4.9,87,0.18,,,0.24,WUHU216HW,2013-06-28 16:31:00,
2013-06-28 18:36:00,56.3,52.4,30.02,WNW,293,2.0,4.9,87,0.16,,,0.26,WUHU216HW,2013-06-28 16:36:00,
2013-06-28 18:41:00,56.4,52.9,30.02,West,270,3.8,3.8,88,0.14,,,0.26,WUHU216HW,2013-06-28 16:41:00,
2013-06-28 18:46:00,56.3,52.7,30.01,West,270,5.1,5.5,88,0.12,,,0.26,WUHU216HW,2013-06-28 16:46:00,
2013-06-28 18:51:00,56.3,52.7,30.01,West,270,4.9,7.3,88,0.14,,,0.28,WUHU216HW,2013-06-28 16:51:00,
2013-06-28 18:56:00,56.4,52.9,30.01,NW,315,5.1,7.8,88,0.10,,,0.28,WUHU216HW,2013-06-28 16:56:00,
2013-06-28 19:01:00,56.3,52.4,30.01,WNW,293,6.2,9.8,87,0.10,,,0.28,WUHU216HW,2013-06-28 17:01:00,
2013-06-28 19:06:00,56.3,52.4,30.01,West,270,6.4,9.8,87,0.08,,,0.28,WUHU216HW,2013-06-28 17:06:00,
2013-06-28 19:11:00,56.4,52.6,30.01,WNW,293,5.5,6.7,87,0.10,,,0.30,WUHU216HW,2013-06-28 17:11:00,
2013-06-28 19:16:00,56.8,52.9,30.00,WNW,293,6.4,6.7,87,0.08,,,0.30,WUHU216HW,2013-06-28 17:16:00,
2013-06-28 19:21:00,56.8,52.9,30.00,West,270,5.1,7.6,87,0.06,,,0.30,WUHU216HW,2013-06-28 17:21:00,
2013-06-28 19:26:00,56.8,52.9,30.00,West,270,3.5,7.6,87,0.06,,,0.30,WUHU216HW,2013-06-28 17:26:00,
2013-06-28 19:31:00,57.0,53.1,30.00,NNW,338,2.9,4.0,87,0.06,,,0.30,WUHU216HW,2013-06-28 17:31:00,
2013-06-28 19:36:00,57.0,53.1,30.00,NW,315,4.0,4.0,87,0.04,,,0.30,WUHU216HW,2013-06-28 17:36:00,
2013-06-28 19:41:00,56.8,53.3,30.00,WNW,293,1.7,4.0,88,0.04,,,0.30,WUHU216HW,2013-06-28 17:41:00,
2013-06-28 19:46:00,57.0,53.4,30.01,WSW,248,0.0,4.0,88,0.04,,,0.30,WUHU216HW,2013-06-28 17:46:00,
2013-06-28 19:51:00,57.2,53.6,30.00,WNW,293,1.3,4.0,88,0.02,,,0.30,WUHU216HW,2013-06-28 17:51:00,
2013-06-28 19:56:00,57.3,53.8,29.99,NNW,338,0.0,2.2,88,0.02,,,0.30,WUHU216HW,2013-06-28 17:56:00,
2013-06-28 20:01:00,57.3,53.8,30.00,West,270,0.8,2.4,88,0.02,,,0.30,WUHU216HW,2013-06-28 18:01:00,
2013-06-28 20:06:00,57.3,53.8,30.00,NW,315,0.0,3.8,88,0.00,,,0.30,WUHU216HW,2013-06-28 18:06:00,
2013-06-28 20:11:00,57.3,53.8,30.00,NNW,338,0.0,3.8,88,0.00,,,0.30,WUHU216HW,2013-06-28 18:11:00,
2013-06-28 20:16:00,57.3,53.8,30.00,North,0,0.0,0.0,88,0.00,,,0.30,WUHU216HW,2013-06-28 18:16:00,
2013-06-28 20:21:00,57.3,54.1,30.01,West,270,0.0,1.3,89,0.00,,,0.30,WUHU216HW,2013-06-28 18:21:00,
2013-06-28 20:26:00,57.5,54.3,30.00,ENE,68,0.0,1.3,89,0.00,,,0.30,WUHU216HW,2013-06-28 18:26:00,
2013-06-28 20:31:00,57.5,54.3,30.01,SE,135,0.0,0.0,89,0.00,,,0.30,WUHU216HW,2013-06-28 18:31:00,
2013-06-28 20:36:00,57.5,54.3,30.01,ESE,113,0.0,0.0,89,0.00,,,0.30,WUHU216HW,2013-06-28 18:36:00,
2013-06-28 20:41:00,57.5,54.3,30.02,SE,135,0.0,0.0,89,0.00,,,0.30,WUHU216HW,2013-06-28 18:41:00,
2013-06-28 20:46:00,57.3,54.1,30.02,NNE,23,0.0,0.0,89,0.00,,,0.30,WUHU216HW,2013-06-28 18:46:00,
2013-06-28 20:51:00,57.3,54.1,30.02,NNW,338,0.0,0.0,89,0.00,,,0.30,WUHU216HW,2013-06-28 18:51:00,
2013-06-28 20:56:00,57.3,54.1,30.02,SSE,158,0.0,0.0,89,0.00,,,0.30,WUHU216HW,2013-06-28 18:56:00,
2013-06-28 21:01:00,57.3,54.1,30.02,SW,225,0.0,0.0,89,0.00,,,0.30,WUHU216HW,2013-06-28 19:01:00,
2013-06-28 21:06:00,57.2,53.9,30.02,South,180,0.0,3.3,89,0.00,,,0.30,WUHU216HW,2013-06-28 19:06:00,
2013-06-28 21:11:00,57.0,53.8,30.02,North,0,0.0,3.3,89,0.00,,,0.30,WUHU216HW,2013-06-28 19:11:00,
2013-06-28 21:16:00,57.0,53.8,30.02,NNW,338,1.1,2.9,89,0.00,,,0.30,WUHU216HW,2013-06-28 19:16:00,
2013-06-28 21:21:00,57.0,53.8,30.02,West,270,0.0,4.0,89,0.00,,,0.30,WUHU216HW,2013-06-28 19:21:00,
2013-06-28 21:26:00,56.8,53.4,30.02,SE,135,0.0,4.0,89,0.00,,,0.30,WUHU216HW,2013-06-28 19:26:00,
2013-06-28 21:31:00,56.3,53.0,30.02,ESE,113,0.0,0.0,89,0.00,,,0.30,WUHU216HW,2013-06-28 19:31:00,
2013-06-28 21:36:00,56.1,52.9,30.02,NNW,338,0.0,0.0,89,0.00,,,0.30,WUHU216HW,2013-06-28 19:36:00,
2013-06-28 21:41:00,55.9,52.7,30.02,WSW,248,0.0,0.0,89,0.00,,,0.30,WUHU216HW,2013-06-28 19:41:00,
2013-06-28 21:46:00,55.7,52.3,30.02,North,0,0.0,1.5,89,0.00,,,0.30,WUHU216HW,2013-06-28 19:46:00,
2013-06-28 21:51:00,55.4,52.1,30.02,North,0,0.6,1.5,89,0.00,,,0.30,WUHU216HW,2013-06-28 19:51:00,
2013-06-28 21:56:00,55.2,52.0,30.02,NW,315,0.0,1.5,89,0.00,,,0.30,WUHU216HW,2013-06-28 19:56:00,
2013-06-28 22:01:00,55.2,52.0,30.02,WNW,293,0.0,1.5,89,0.00,,,0.30,WUHU216HW,2013-06-28 20:01:00,
2013-06-28 22:06:00,54.8,51.6,30.02,WSW,248,0.0,3.5,89,0.00,,,0.30,WUHU216HW,2013-06-28 20:06:00,
2013-06-28 22:11:00,54.6,51.8,30.02,WNW,293,4.2,4.2,90,0.00,,,0.30,WUHU216HW,2013-06-28 20:11:00,
2013-06-28 22:16:00,54.6,51.8,30.02,WNW,293,3.3,4.2,90,0.00,,,0.30,WUHU216HW,2013-06-28 20:16:00,
2013-06-28 22:21:00,54.6,51.8,30.02,ENE,68,0.0,4.6,90,0.00,,,0.30,WUHU216HW,2013-06-28 20:21:00,
2013-06-28 22:26:00,54.6,51.8,30.02,SSE,158,0.0,4.6,90,0.00,,,0.30,WUHU216HW,2013-06-28 20:26:00,
2013-06-28 22:31:00,54.5,51.6,30.01,ENE,68,0.0,0.0,90,0.00,,,0.30,WUHU216HW,2013-06-28 20:31:00,
2013-06-28 22:37:00,54.5,51.6,30.01,SSW,203,0.0,0.0,90,0.00,,,0.30,WUHU216HW,2013-06-28 20:37:00,
2013-06-28 22:42:00,54.3,51.4,30.02,East,90,0.0,3.5,90,0.00,,,0.30,WUHU216HW,2013-06-28 20:42:00,
2013-06-28 22:47:00,54.6,51.8,30.02,SE,135,0.0,5.1,90,0.00,,,0.30,WUHU216HW,2013-06-28 20:47:00,
2013-06-28 22:52:00,54.6,51.8,30.01,ESE,113,0.0,5.1,90,0.00,,,0.30,WUHU216HW,2013-06-28 20:52:00,
2013-06-28 22:57:00,54.8,51.9,30.01,WNW,293,1.1,2.0,90,0.00,,,0.30,WUHU216HW,2013-06-28 20:57:00,
2013-06-28 23:02:00,54.8,51.9,30.01,West,270,0.0,2.0,90,0.00,,,0.30,WUHU216HW,2013-06-28 21:02:00,
2013-06-28 23:07:00,55.0,52.1,30.01,West,270,1.5,1.7,90,0.00,,,0.30,WUHU216HW,2013-06-28 21:07:00,
2013-06-28 23:12:00,55.4,52.5,30.01,WNW,293,2.9,3.5,90,0.00,,,0.30,WUHU216HW,2013-06-28 21:12:00,
2013-06-28 23:17:00,55.9,53.0,30.01,West,270,3.8,6.7,90,0.00,,,0.30,WUHU216HW,2013-06-28 21:17:00,
2013-06-28 23:22:00,56.1,53.2,30.01,WSW,248,9.8,9.8,90,0.00,,,0.30,WUHU216HW,2013-06-28 21:22:00,
2013-06-28 23:27:00,56.3,53.0,30.02,WNW,293,3.8,9.8,89,0.00,,,0.30,WUHU216HW,2013-06-28 21:27:00,
2013-06-28 23:32:00,56.4,53.6,30.01,WSW,248,3.5,7.3,90,0.00,,,0.30,WUHU216HW,2013-06-28 21:32:00,
2013-06-28 23:37:00,56.4,53.4,30.01,WSW,248,0.0,3.5,90,0.00,,,0.30,WUHU216HW,2013-06-28 21:37:00,
2013-06-28 23:42:00,56.3,52.9,30.01,SW,225,0.0,0.8,89,0.00,,,0.30,WUHU216HW,2013-06-28 21:42:00,
2013-06-28 23:47:00,56.1,52.9,30.01,WSW,248,0.0,0.0,89,0.00,,,0.30,WUHU216HW,2013-06-28 21:47:00,
2013-06-28 23:52:00,56.1,52.9,30.01,NNW,338,0.0,0.0,89,0.00,,,0.30,WUHU216HW,2013-06-28 21:52:00,
2013-06-28 23:57:00,56.1,52.9,30.01,ESE,113,0.0,0.0,89,0.00,,,0.30,WUHU216HW,2013-06-28 21:57:00,